STARLINK-3885, 52463

Orbit data source: Space-Track

STARLINK-3885, 52463 is a payload satellite owned by SpaceX/Seattle (US) in LEO that was launched on Fri, 06 May 2022 UTC via an FALCON 9 launch vehicle from the Air Force Eastern Test Range (AFETR). Payload-class satellites include a variety of spacecraft equipped with specific instruments for various scientific and technological missions. These include communications satellites like Starlink; space stations such as the ISS; scientific satellites like the Hubble; Earth observation satellites from companies like Planet Labs, Umbra, and HawkEye 360; GPS; miniature CubeSats for education and research; and military/defense satellites.

Loading next visibility...
Identifier
52463, 2022-049N
Orbit
LEO
Country
Flag of USUS
Related business
Manufacturer
SpaceX/Seattle
Mission
Operational Commercial Communications
Bus & Motor
STARLINK, Unknown motor
Mass
297 kg wet, ~220 kg dry
Launch date (UTC)
2022-05-06 (4 years ago)
Launch vehicle
FALCON 9
Launch site
Air Force Eastern Test Range (AFETR)
Object type
Payload
Rocket body
Debris
Shape & HBR
Box + 1 Pan, 10.1 m
Radar Cross Section
13.562 m², Large (>1 m²)

Expand to show TLE details & history
Last TLE update: 21 hours ago

TLE from 21 hours ago
0 STARLINK-3885
1 52463U 22049N   26192.47231067  .00000403  00000-0  43395-4 0  9992
2 52463  53.1589 213.1940 0000847  78.7226 281.3860 15.08838259231074
Epoch: 2026-07-11T11:20Z
TLE epoch observation values (Epoch: 2026-07-11T11:20:07.641Z)
Latitude
-0.00009°
Longitude
113.77706°
Altitude
540.524 km
Speed
7.593 km/s
True Right ascension
14h 12m 46s
True Declination
0° 00' 00"
Sunlit
Object was in daylight at epoch
Visualization orbit readout
Latitude
Unknown
Longitude
Unknown
Altitude
Unknown
Speed
Unknown
Apparent Right ascension
Unknown
Apparent Declination
Unknown
Sunlit
N/A
Visualization observer readout
Local Sidereal Time
20:37:48
Azimuth
Unknown
Elevation
Unknown
Doppler factor
Unknown
Orbital elements
Apogee altitude
540.589 km
Perigee altitude
539.417 km
Semi-major axis
6,918.14 km
Eccentricity
0.00008
Inclination
53.1589°
RAAN
213.194°
Arg. of periapsis
78.7226°
True anomaly
281.37648°
Mean anomaly
281.386°
Eccentric anomaly
281.38124°
Mean motion
3.77189 °/min
Orbital period
95.44 mins
BSTAR
0.000043395
Loading maneuver chart data...
Computing Atmospheric mass density...
Loading historical data...
Loading historical data...
Loading historical data...
Loading historical data...
Loading historical data...
Loading historical data...
Loading historical data...

Documentation

Showing up to 5 results
|